Regional Weather Roundup
Issued by NWS

Home | Current Version | Previous Version | Text Only | Print | Product List | Glossary Off
Versions: 1 2 3 4 5 6 7 8 9 10 11 12 13 14 15 16 17 18 19 20 21 22 23 24 25 26 27 28 29 30 31 32 33 34 35 36 37 38 39 40 41 42 43 44 45 46 47 48 49 50

000
ASUS43 KFSD 261302
RWRSD

WEATHER ROUNDUP FOR SOUTH DAKOTA
NATIONAL WEATHER SERVICE SIOUX FALLS SD
800 AM CDT TUE SEP 26 2017

NOTE: "FAIR" INDICATES FEW OR NO CLOUDS BELOW 12,000 FEET WITH NO
SIGNIFICANT WEATHER AND/OR OBSTRUCTIONS TO VISIBILITY.


SDZ001>005-009-010-012>017-261400-
NORTHWEST AND NORTH CENTRAL SOUTH DAKOTA

CITY           SKY/WX    TMP DP  RH WIND       PRES   REMARKS
BUFFALO          N/A     42  41  96 NW6       30.02R
FAITH            N/A     43  43 100 SE7       30.08S
MOBRIDGE       CLOUDY    46  44  93 N5        30.10R
$$

SDZ012>016-024>037-041>051-057-063-072>074-261400-
SOUTHWEST AND SOUTH CENTRAL SOUTH DAKOTA

CITY           SKY/WX    TMP DP  RH WIND       PRES   REMARKS
RAPID CTY ARPT CLEAR     37  36  93 SE3       30.10R
PIERRE         FOG       40  39  97 W3        30.11R VSB 1/4
CUSTER         FOG       36  34  92 SW3       30.13R VSB 1/4
ELLSWORTH AFB  CLEAR     40  40 100 NW5       30.09R
PHILIP         MOCLDY    41  41 100 E3        30.11R
PINE RIDGE     CLEAR     40  39  97 SW8       30.13R
SPEARFISH      FAIR      39  37  93 CALM      30.10R
WINNER         FAIR      42  40  92 SW6       30.14R
$$

SDZ004>011-016>023-039-040-261400-
NORTHEAST SOUTH DAKOTA

CITY           SKY/WX    TMP DP  RH WIND       PRES   REMARKS
ABERDEEN       CLOUDY    48  48 100 NW10      30.10R
WATERTOWN      CLOUDY    48  48 100 NW9       30.05R
BROOKINGS      CLOUDY    49  48  97 NW13      30.07R
SISSETON         N/A     50  49  96 NW14      30.04R
$$

SDZ017-020-022-023-036>040-048>070-261400-
SOUTHEAST SOUTH DAKOTA

CITY           SKY/WX    TMP DP  RH WIND       PRES   REMARKS
SIOUX FALLS    CLOUDY    50  50 100 NW9       30.07R
HURON          CLOUDY    48  47  96 W7        30.11R
CHAMBERLAIN    MOCLDY    45  45 100 CALM      30.14R
MITCHELL       CLOUDY    49  46  90 NW12      30.12R
YANKTON        CLOUDY    50  47  89 NW12      30.10R
$$

ABBREVIATIONS USED IN REMARKS
   TC - TEMPERATURE IN CELSIUS
  WCI - WIND CHILL INDEX
   HX - HEAT INDEX
  VSB - VISIBILITY




USA.gov is the U.S. government's official web portal to all federal, state and local government web resources and services.